| time (UTC) | temp F | wind direction | speed MPH | gust MPH | rain 1hr in | rain 24hr in | rain mn in | humidity % | barometer mb |
| 20260507081550 | 41 | 169 | 3.0 | 6.0 | 0.00 | 0.00 | 0.00 | 64 | 1015.2 |
| 20260507074552 | 41 | 185 | 3.0 | 6.0 | 0.00 | 0.00 | 0.00 | 62 | 1015.3 |
| 20260507073102 | 42 | 188 | 2.0 | 7.0 | 0.00 | 0.00 | 0.00 | 61 | 1015.4 |
| 20260507071556 | 42 | 200 | 3.0 | 6.0 | 0.00 | 0.00 | 0.00 | 60 | 1015.5 |
| 20260507070100 | 42 | 193 | 2.0 | 6.0 | 0.00 | 0.00 | 0.00 | 59 | 1015.7 |
| 20260507064551 | 42 | 199 | 1.0 | 6.0 | 0.00 | 0.00 | 0.00 | 59 | 1015.9 |
| 20260507063052 | 42 | 217 | 2.0 | 5.0 | 0.00 | 0.00 | 0.00 | 60 | 1015.9 |
| 20260507061549 | 42 | 221 | 2.0 | 5.0 | 0.00 | 0.00 | 0.00 | 60 | 1016.1 |
| 20260507060058 | 42 | 0 | 0.0 | 3.0 | 0.00 | 0.00 | 0.00 | 60 | 1016.1 |
| 20260507054549 | 43 | 0 | 0.0 | 3.0 | 0.00 | 0.00 | 0.00 | 60 | 1016.3 |
| 20260507053057 | 43 | 191 | 1.0 | 4.0 | 0.00 | 0.00 | 0.00 | 57 | 1016.3 |
| 20260507051549 | 43 | 204 | 1.0 | 3.0 | 0.00 | 0.00 | 0.00 | 57 | 1016.3 |
| 20260507050052 | 43 | 197 | 2.0 | 5.0 | 0.00 | 0.00 | 0.00 | 56 | 1016.4 |
| 20260507044559 | 43 | 209 | 2.0 | 5.0 | 0.00 | 0.00 | 0.00 | 56 | 1016.4 |
| 20260507043056 | 43 | 0 | 0.0 | 0.0 | 0.00 | 0.00 | 0.00 | 59 | 1016.4 |
| 20260507041550 | 43 | 0 | 0.0 | 0.0 | 0.00 | 0.00 | 0.00 | 57 | 1016.4 |
| 20260507040051 | 44 | 0 | 0.0 | 0.0 | 0.00 | 0.00 | 0.00 | 58 | 1016.5 |
| 20260507034551 | 44 | 0 | 0.0 | 0.0 | 0.00 | 0.00 | 0.00 | 57 | 1016.5 |
| 20260507033048 | 45 | 0 | 0.0 | 0.0 | 0.00 | 0.00 | 0.00 | 56 | 1016.6 |
| 20260507031547 | 46 | 0 | 0.0 | 0.0 | 0.00 | 0.00 | 0.00 | 54 | 1016.6 |
| 20260507030057 | 46 | 0 | 0.0 | 0.0 | 0.00 | 0.00 | 0.00 | 52 | 1016.6 |
| 20260507024554 | 47 | 0 | 0.0 | 0.0 | 0.00 | 0.00 | 0.00 | 48 | 1016.5 |
| 20260507023047 | 49 | 0 | 0.0 | 0.0 | 0.00 | 0.00 | 0.00 | 45 | 1016.6 |
| 20260507021556 | 50 | 0 | 0.0 | 1.0 | 0.00 | 0.00 | 0.00 | 42 | 1016.3 |
| 20260507020052 | 50 | 286 | 0.0 | 3.0 | 0.00 | 0.00 | 0.00 | 39 | 1016.2 |
| 20260507014550 | 51 | 313 | 1.0 | 5.0 | 0.00 | 0.00 | 0.00 | 38 | 1016.1 |
| 20260507013058 | 52 | 291 | 1.0 | 4.0 | 0.00 | 0.00 | 0.00 | 37 | 1016.2 |
| 20260507011553 | 53 | 283 | 2.0 | 6.0 | 0.00 | 0.00 | 0.00 | 36 | 1016.1 |
| 20260507010048 | 54 | 284 | 2.0 | 7.0 | 0.00 | 0.00 | 0.00 | 34 | 1016.2 |
| 20260507004552 | 54 | 298 | 3.0 | 9.0 | 0.00 | 0.00 | 0.00 | 34 | 1016.1 |
| 20260507003051 | 54 | 280 | 3.0 | 10.0 | 0.00 | 0.00 | 0.00 | 32 | 1015.9 |
| 20260507001551 | 55 | 296 | 5.0 | 15.0 | 0.00 | 0.00 | 0.00 | 31 | 1016.0 |
| 20260507000055 | 55 | 288 | 6.0 | 13.0 | 0.00 | 0.00 | 0.00 | 31 | 1016.1 |
| 20260506234554 | 56 | 321 | 6.0 | 14.0 | 0.00 | 0.00 | 0.00 | 31 | 1016.3 |
| 20260506233053 | 55 | 304 | 9.0 | 18.0 | 0.00 | 0.00 | 0.00 | 31 | 1016.4 |
| 20260506231552 | 56 | 300 | 3.0 | 16.0 | 0.00 | 0.00 | 0.00 | 32 | 1016.4 |
| 20260506230055 | 56 | 288 | 6.0 | 14.0 | 0.00 | 0.00 | 0.00 | 31 | 1016.4 |
| 20260506224602 | 57 | 257 | 4.0 | 16.0 | 0.00 | 0.00 | 0.00 | 31 | 1016.5 |
| 20260506223052 | 56 | 269 | 8.0 | 17.0 | 0.00 | 0.00 | 0.00 | 31 | 1016.5 |
| 20260506221548 | 55 | 222 | 5.0 | 13.0 | 0.00 | 0.00 | 0.00 | 33 | 1016.5 |
| 20260506220053 | 56 | 271 | 10.0 | 19.0 | 0.00 | 0.00 | 0.00 | 31 | 1016.6 |
| 20260506214607 | 56 | 319 | 8.0 | 18.0 | 0.00 | 0.00 | 0.00 | 32 | 1016.6 |
| 20260506213051 | 55 | 242 | 7.0 | 18.0 | 0.00 | 0.00 | 0.00 | 33 | 1016.6 |
| 20260506211548 | 55 | 345 | 7.0 | 17.0 | 0.00 | 0.00 | 0.00 | 33 | 1016.8 |
| 20260506210054 | 55 | 263 | 7.0 | 18.0 | 0.00 | 0.00 | 0.00 | 33 | 1017.0 |
| 20260506204604 | 55 | 266 | 10.0 | 18.0 | 0.00 | 0.00 | 0.00 | 34 | 1017.1 |
| 20260506203055 | 55 | 339 | 10.0 | 17.0 | 0.00 | 0.00 | 0.00 | 34 | 1017.1 |
| 20260506201551 | 56 | 300 | 8.0 | 17.0 | 0.00 | 0.00 | 0.00 | 34 | 1017.1 |
| 20260506200047 | 56 | 281 | 7.0 | 18.0 | 0.00 | 0.00 | 0.00 | 34 | 1017.2 |
| 20260506194600 | 55 | 314 | 7.0 | 20.0 | 0.00 | 0.00 | 0.00 | 33 | 1017.3 |
| 20260506193058 | 56 | 267 | 8.0 | 18.0 | 0.00 | 0.00 | 0.00 | 33 | 1017.2 |
| 20260506191553 | 56 | 315 | 5.0 | 16.0 | 0.00 | 0.00 | 0.00 | 34 | 1017.2 |
| 20260506190046 | 56 | 293 | 9.0 | 16.0 | 0.00 | 0.00 | 0.00 | 33 | 1017.2 |
| 20260506184550 | 55 | 352 | 9.0 | 15.0 | 0.00 | 0.00 | 0.00 | 34 | 1017.1 |
| 20260506183100 | 55 | 352 | 6.0 | 14.0 | 0.00 | 0.00 | 0.00 | 34 | 1017.5 |
| 20260506181553 | 53 | 304 | 5.0 | 14.0 | 0.00 | 0.00 | 0.00 | 36 | 1017.6 |
| 20260506180052 | 54 | 286 | 9.0 | 18.0 | 0.00 | 0.00 | 0.00 | 34 | 1017.6 |
| 20260506174549 | 55 | 360 | 8.0 | 15.0 | 0.00 | 0.00 | 0.00 | 34 | 1017.7 |
| 20260506173051 | 55 | 244 | 5.0 | 17.0 | 0.00 | 0.00 | 0.00 | 34 | 1017.6 |
| 20260506171557 | 54 | 330 | 7.0 | 14.0 | 0.00 | 0.00 | 0.00 | 34 | 1017.5 |
| 20260506170052 | 54 | 232 | 9.0 | 21.0 | 0.00 | 0.00 | 0.00 | 35 | 1017.5 |
| 20260506164555 | 53 | 273 | 5.0 | 18.0 | 0.00 | 0.00 | 0.00 | 36 | 1017.6 |
| 20260506163058 | 53 | 284 | 9.0 | 15.0 | 0.00 | 0.00 | 0.00 | 37 | 1017.8 |
| 20260506160054 | 51 | 328 | 4.0 | 12.0 | 0.00 | 0.00 | 0.00 | 39 | 1017.4 |
| 20260506153045 | 52 | 340 | 5.0 | 12.0 | 0.00 | 0.00 | 0.00 | 38 | 1017.6 |
| 20260506151555 | 51 | 331 | 6.0 | 13.0 | 0.00 | 0.00 | 0.00 | 40 | 1017.5 |
| 20260506150052 | 50 | 280 | 5.0 | 14.0 | 0.00 | 0.00 | 0.00 | 43 | 1017.7 |
| 20260506144559 | 50 | 297 | 6.0 | 13.0 | 0.00 | 0.00 | 0.00 | 42 | 1017.6 |
| 20260506143054 | 49 | 348 | 7.0 | 13.0 | 0.00 | 0.00 | 0.00 | 45 | 1017.3 |
| 20260506141547 | 48 | 20 | 8.0 | 14.0 | 0.00 | 0.00 | 0.00 | 46 | 1017.0 |
| 20260506140059 | 48 | 30 | 7.0 | 13.0 | 0.00 | 0.00 | 0.00 | 48 | 1017.0 |
| 20260506134557 | 46 | 335 | 7.0 | 15.0 | 0.00 | 0.00 | 0.00 | 50 | 1017.0 |
| 20260506133102 | 44 | 332 | 5.0 | 10.0 | 0.00 | 0.00 | 0.00 | 57 | 1016.7 |
| 20260506131548 | 44 | 324 | 4.0 | 10.0 | 0.00 | 0.00 | 0.00 | 58 | 1016.7 |
| 20260506130049 | 43 | 317 | 2.0 | 9.0 | 0.00 | 0.00 | 0.00 | 59 | 1016.6 |
| 20260506124549 | 43 | 350 | 2.0 | 8.0 | 0.00 | 0.00 | 0.00 | 60 | 1016.5 |
| 20260506123051 | 42 | 323 | 2.0 | 8.0 | 0.00 | 0.00 | 0.00 | 61 | 1016.4 |
| 20260506121551 | 41 | 360 | 3.0 | 9.0 | 0.00 | 0.00 | 0.00 | 63 | 1016.0 |
| 20260506120053 | 41 | 352 | 3.0 | 6.0 | 0.00 | 0.00 | 0.00 | 64 | 1015.8 |
| 20260506114555 | 41 | 331 | 3.0 | 8.0 | 0.00 | 0.01 | 0.00 | 64 | 1015.4 |
| 20260506113052 | 41 | 325 | 2.0 | 5.0 | 0.00 | 0.01 | 0.00 | 64 | 1015.0 |
| 20260506111552 | 41 | 0 | 2.0 | 6.0 | 0.00 | 0.01 | 0.00 | 64 | 1014.9 |
| 20260506110052 | 41 | 325 | 2.0 | 5.0 | 0.00 | 0.01 | 0.00 | 64 | 1014.5 |
| 20260506104556 | 41 | 355 | 2.0 | 6.0 | 0.00 | 0.01 | 0.00 | 63 | 1014.2 |
| 20260506103047 | 42 | 320 | 2.0 | 5.0 | 0.00 | 0.01 | 0.00 | 63 | 1014.1 |
| 20260506101552 | 42 | 308 | 2.0 | 5.0 | 0.00 | 0.01 | 0.00 | 63 | 1014.0 |
| 20260506100054 | 42 | 213 | 2.0 | 5.0 | 0.00 | 0.01 | 0.00 | 63 | 1013.9 |
| 20260506094548 | 42 | 342 | 3.0 | 6.0 | 0.00 | 0.01 | 0.00 | 63 | 1013.9 |
| 20260506093048 | 42 | 322 | 1.0 | 5.0 | 0.00 | 0.01 | 0.00 | 64 | 1013.9 |
| 20260506091547 | 42 | 313 | 2.0 | 4.0 | 0.00 | 0.01 | 0.00 | 64 | 1013.9 |
| 20260506090046 | 42 | 319 | 2.0 | 5.0 | 0.00 | 0.01 | 0.00 | 63 | 1013.7 |
| 20260506084546 | 43 | 313 | 3.0 | 6.0 | 0.00 | 0.01 | 0.00 | 63 | 1013.5 |
| 20260506083051 | 43 | 330 | 1.0 | 5.0 | 0.00 | 0.01 | 0.00 | 62 | 1013.3 |